Weather Roundup
Issued by NWS Springfield, MO

Home | Current Version | Previous Version | Graphics & Text | Print | Product List | Glossary On
Versions: 1 2 3 4 5 6 7 8 9 10 11 12 13 14 15 16 17 18 19 20 21 22 23 24 25 26 27 28 29 30 31 32 33 34 35 36 37 38 39 40 41 42 43 44 45 46 47 48 49 50
000
NZUS99 KSGF 310007
HRRSGF

HOURLY WEATHER
NATIONAL WEATHER SERVICE SPRINGFIELD MO
600 PM CST FRI JAN 30 2015

......SGF CWA......

CITY           SKY/WX    TMP DP  RH WIND       PRES   REMARKS
SPRINGFIELD    CLOUDY    42  15  33 CALM      30.39F
6HR MIN TEMP:  39; 6HR MAX TEMP:  48;

JOPLIN         CLOUDY    43  22  43 NE3       30.41F
6HR MIN TEMP:  39; 6HR MAX TEMP:  47;

WEST PLAINS    MOCLDY    39  16  39 E3        30.41F
6HR MIN TEMP:  38; 6HR MAX TEMP:  48;

ROLLA          MOCLDY    31  19  61 CALM      30.40F
6HR MIN TEMP:  31; 6HR MAX TEMP:  42;

OSAGE BEACH    CLOUDY    37  18  44 CALM      30.42F
BRANSON        CLOUDY    39  16  38 E3        30.41F

......SURROUNDING SGF CWA......

CITY           SKY/WX    TMP DP  RH WIND       PRES   REMARKS
CHANUTE        CLOUDY    40  23  50 SE3       30.40F
PARSONS        CLOUDY    41  24  51 CALM      30.42F
COFFEYVILLE    CLOUDY    41  25  53 NE5       30.42F
EMPORIA        CLOUDY    38  24  57 S7        30.37F WCI  33
GROVE OK       CLOUDY    45  27  49 CALM      30.43S
ROGERS AR      CLOUDY    44  21  40 CALM      30.41R
SILOAM SPRINGS CLOUDY    45  19  36 NE3       30.42S
HARRISON AR    PTCLDY    42  19  39 SE3       30.40F
NEAR YELLVILLE CLEAR     45  12  26 CALM      30.42F

......KANSAS AND MISSOURI......

CITY           SKY/WX    TMP DP  RH WIND       PRES   REMARKS
KANSAS CTY INT CLOUDY    33  19  56 S6        30.38F WCI  28
DOWNTOWN KC    CLOUDY    37  19  48 E6        30.39F WCI  32
COLUMBIA       PTCLDY    34  17  50 CALM      30.42F
SEDALIA        MOCLDY    37  18  46 CALM      30.43F
ST JOSEPH      CLOUDY    31  19  61 S6        30.39F WCI  25
ST LOUIS       NOT AVBL
SPIRIT OF STL  CLEAR     28  19  69 CALM      30.45S
KIRKSVILLE     CLEAR     30  18  60 S6        30.42F WCI  24
WICHITA        CLOUDY    41  25  53 SE5       30.36F
TOPEKA         CLOUDY    38  21  50 S5        30.39F WCI  34
OLATHE         CLOUDY    36  22  56 S3        30.39F

......TENNESSEE......

CITY           SKY/WX    TMP DP  RH WIND       PRES   REMARKS
MEMPHIS        MOCLDY    46  22  38 NE8       30.43R
NASHVILLE      PTCLDY    38  20  48 N7        30.43S WCI  33

......ARKANSAS.......

CITY           SKY/WX    TMP DP  RH WIND       PRES   REMARKS
FAYETTEVILLE   CLOUDY    44  23  43 CALM      30.40R
FT SMITH       MOCLDY    47  24  40 NE6       30.41S
LITTLE ROCK    PTCLDY    43  23  45 E6        30.45R

......OKLAHOMA.......

CITY           SKY/WX    TMP DP  RH WIND       PRES   REMARKS
TULSA          CLOUDY    47  21  35 E3        30.40F
PONCA CITY     CLOUDY    45  22  40 E5        30.38F
MCALESTER      CLOUDY    50  29  44 NE6       30.38S
OKLAHOMA CITY  CLOUDY    46  23  40 E8        30.36F

......IOWA............

CITY           SKY/WX    TMP DP  RH WIND       PRES   REMARKS
DES MOINES     MOCLDY    32  14  47 S6        30.37F WCI  26
QUAD CITIES    CLEAR     27  17  66 S3        30.42F

......ILLINOIS........

CITY           SKY/WX    TMP DP  RH WIND       PRES   REMARKS
QUINCY         CLEAR     32  15  49 CALM      30.44S
CHICAGO        CLEAR     25  11  55 W7        30.42S WCI  17



USA.gov is the U.S. government's official web portal to all federal, state and local government web resources and services.